Time,TemperatureF,DewpointF,PressureIn,WindDirection,WindDirectionDegrees,WindSpeedMPH,WindSpeedGustMPH,Humidity,HourlyPrecipIn,Conditions,Clouds,dailyrainin,SolarRadiationWatts/m^2,SoftwareType,DateUTC
2013-12-02 00:01:00,31.0,31.0,-100.00,SSW,213,6.0,8.0,100,0.00,,,0.00,0.000000,,2013-12-02 07:01:00,
2013-12-02 00:42:00,31.0,31.0,-100.00,SW,216,5.0,9.0,100,0.00,,,0.00,0.000000,,2013-12-02 07:42:00,
2013-12-02 00:52:00,31.0,31.0,-100.00,SW,216,5.0,9.0,100,0.00,,,0.00,0.000000,,2013-12-02 07:52:00,
2013-12-02 01:01:00,31.0,31.0,-100.00,SW,216,5.0,9.0,100,0.00,,,0.00,0.000000,,2013-12-02 08:01:00,
2013-12-02 01:42:00,31.0,31.0,-100.00,SW,217,5.0,8.0,100,0.00,,,0.00,0.000000,,2013-12-02 08:42:00,
2013-12-02 01:52:00,31.0,31.0,-100.00,SW,217,5.0,8.0,100,0.00,,,0.00,0.000000,,2013-12-02 08:52:00,
2013-12-02 02:01:00,31.0,31.0,-100.00,SW,217,5.0,8.0,100,0.00,,,0.00,0.000000,,2013-12-02 09:01:00,
2013-12-02 02:43:00,32.0,32.0,-100.00,SSW,207,4.0,6.0,100,0.00,,,0.00,0.000000,,2013-12-02 09:43:00,
2013-12-02 02:54:00,32.0,32.0,-100.00,SSW,207,4.0,6.0,100,0.00,,,0.00,0.000000,,2013-12-02 09:54:00,
2013-12-02 03:03:00,32.0,32.0,-100.00,SSW,207,4.0,6.0,100,0.00,,,0.00,0.000000,,2013-12-02 10:03:00,
2013-12-02 03:42:00,32.0,32.0,-100.00,SSW,208,5.0,8.0,100,0.00,,,0.00,0.000000,,2013-12-02 10:42:00,
2013-12-02 03:52:00,32.0,32.0,-100.00,SSW,208,5.0,8.0,100,0.00,,,0.00,0.000000,,2013-12-02 10:52:00,
2013-12-02 04:02:00,32.0,32.0,-100.00,SSW,208,5.0,8.0,100,0.00,,,0.00,0.000000,,2013-12-02 11:02:00,
2013-12-02 04:42:00,32.0,32.0,-100.00,SSW,208,7.0,9.0,100,0.00,,,0.00,0.000000,,2013-12-02 11:42:00,
2013-12-02 04:53:00,32.0,32.0,-100.00,SSW,208,7.0,9.0,100,0.00,,,0.00,0.000000,,2013-12-02 11:53:00,
2013-12-02 05:02:00,32.0,32.0,-100.00,SSW,208,7.0,9.0,100,0.00,,,0.00,0.000000,,2013-12-02 12:02:00,
2013-12-02 05:42:00,32.0,32.0,-100.00,SSW,212,7.0,14.0,100,0.00,,,0.00,0.000000,,2013-12-02 12:42:00,
2013-12-02 05:52:00,32.0,32.0,-100.00,SSW,212,7.0,14.0,100,0.00,,,0.00,0.000000,,2013-12-02 12:52:00,
2013-12-02 06:01:00,32.0,32.0,-100.00,SSW,212,7.0,14.0,100,0.00,,,0.00,0.000000,,2013-12-02 13:01:00,
2013-12-02 06:42:00,32.0,32.0,-100.00,SW,222,7.0,15.0,100,0.00,,,0.00,0.000000,,2013-12-02 13:42:00,
2013-12-02 06:52:00,32.0,32.0,-100.00,SW,222,7.0,15.0,100,0.00,,,0.00,0.000000,,2013-12-02 13:52:00,
2013-12-02 07:02:00,32.0,32.0,-100.00,SW,222,7.0,15.0,100,0.00,,,0.00,0.000000,,2013-12-02 14:02:00,
2013-12-02 07:42:00,32.0,32.0,-100.00,SW,219,6.0,12.0,100,0.00,,,0.00,0.000000,,2013-12-02 14:42:00,
2013-12-02 07:52:00,32.0,32.0,-100.00,SW,219,6.0,12.0,100,0.00,,,0.00,0.000000,,2013-12-02 14:52:00,
2013-12-02 08:02:00,32.0,32.0,-100.00,SW,219,6.0,12.0,100,0.00,,,0.00,0.000000,,2013-12-02 15:02:00,
2013-12-02 08:43:00,30.0,30.0,-100.00,WSW,244,4.0,14.0,100,0.00,,,0.00,1.000000,,2013-12-02 15:43:00,
2013-12-02 08:54:00,30.0,30.0,-100.00,WSW,244,4.0,14.0,100,0.00,,,0.00,1.000000,,2013-12-02 15:54:00,
2013-12-02 09:03:00,30.0,30.0,-100.00,WSW,244,4.0,14.0,100,0.00,,,0.00,1.000000,,2013-12-02 16:03:00,
2013-12-02 18:42:00,16.0,14.0,-100.00,NW,308,2.0,5.0,92,-99.99,,,0.00,0.000000,,2013-12-03 01:42:00,
2013-12-02 18:52:00,16.0,14.0,-100.00,NW,308,2.0,5.0,92,-99.99,,,0.00,0.000000,,2013-12-03 01:52:00,
2013-12-02 19:01:00,16.0,14.0,-100.00,NW,308,2.0,5.0,92,-99.99,,,0.00,0.000000,,2013-12-03 02:01:00,
2013-12-02 19:42:00,16.0,14.0,-100.00,NNW,343,2.0,3.0,91,0.00,,,0.00,0.000000,,2013-12-03 02:42:00,
2013-12-02 19:52:00,16.0,14.0,-100.00,NNW,343,2.0,3.0,91,0.00,,,0.00,0.000000,,2013-12-03 02:52:00,
2013-12-02 20:02:00,16.0,14.0,-100.00,NNW,343,2.0,3.0,91,0.00,,,0.00,0.000000,,2013-12-03 03:02:00,
2013-12-02 20:43:00,14.0,12.0,-100.00,West,260,1.0,3.0,90,0.00,,,0.00,0.000000,,2013-12-03 03:43:00,
2013-12-02 20:54:00,14.0,12.0,-100.00,West,260,1.0,3.0,90,0.00,,,0.00,0.000000,,2013-12-03 03:54:00,
2013-12-02 21:03:00,14.0,12.0,-100.00,West,260,1.0,3.0,90,0.00,,,0.00,0.000000,,2013-12-03 04:03:00,
2013-12-02 21:43:00,13.0,11.0,-100.00,NNW,336,2.0,4.0,90,0.00,,,0.00,0.000000,,2013-12-03 04:43:00,
2013-12-02 21:52:00,13.0,11.0,-100.00,NNW,336,2.0,4.0,90,0.00,,,0.00,0.000000,,2013-12-03 04:52:00,
2013-12-02 22:02:00,13.0,11.0,-100.00,NNW,336,2.0,4.0,90,0.00,,,0.00,0.000000,,2013-12-03 05:02:00,
2013-12-02 22:43:00,13.0,11.0,-100.00,NNW,334,0.0,1.0,90,0.00,,,0.00,0.000000,,2013-12-03 05:43:00,
2013-12-02 22:53:00,13.0,11.0,-100.00,NNW,334,0.0,1.0,90,0.00,,,0.00,0.000000,,2013-12-03 05:53:00,
2013-12-02 23:02:00,13.0,11.0,-100.00,NNW,334,0.0,1.0,90,0.00,,,0.00,0.000000,,2013-12-03 06:02:00,